Main page
METAR-TAF:

METAR-TAF

Airports :

Oil platform

Euro, Netherlands

latitude: 51-59-52N, longitude: 3-16-30E, elevation: 18 m

Current weather observation

The report was made 26 minutes ago, at 01:55 UTC
Wind 15 kt from the South/Southwest
Temperature 9°C
Humidity 93%
Pressure 1033 hPa
Visibility 10 km or more

METAR: EHSA 210155Z AUTO 21015KT 9999 ///////// 09/08 Q1033 W06/H6

Time: 03:21 (02:21 UTC)


TAF: missing

Weather observations and forecasts of more than 4000 airports (METAR and TAF reports).

The available stations are represented by yellow and red dots on the map.

Hover mouse over dot to see the name of the station.

Then click to see weather observations and forecasts.

To change the map : click on the green buttons with a black cross to zoom in, on the green button with a dash to zoom out, or on the green arrows for adjacent maps.


METAR-TAF: